Weather History for KCFS - October, 2011

Change the Weather History Date:

Friday, October 21, 2011

  Actual Average (KMBS) Record (KMBS)
Temperature  
Mean Temperature 44 °F 48 °F  
Max Temperature 46 °F 57 °F 81 °F (2007)
Min Temperature 42 °F 39 °F 28 °F (2002)
Degree Days  
Heating Degree Days 21    
Month to date heating degree days  
Since 1 July heating degree days  
Cooling Degree Days 0    
Month to date cooling degree days  
Year to date cooling degree days  
Moisture  
Dew Point 38 °F    
Average Humidity 81    
Maximum Humidity 93    
Minimum Humidity 66    
Precipitation  
Precipitation 0.00 in 0.08 in 0.23 in (2006)
Month to date precipitation 1.80  
Year to date precipitation 26.15  
Snow  
Snow 0.00 in - - ()
Month to date snowfall  
Since 1 July snowfall  
Since 1 September snowfall  
Snow Depth -    
Sea Level Pressure  
Sea Level Pressure 29.88 in    
Wind  
Wind Speed 9 mph (West)    
Max Wind Speed 15 mph    
Max Gust Speed 20 mph    
Visibility 10 miles    
Events Rain    
T = Trace of Precipitation, MM = Missing Value Source: NWS Daily Summary

Daily Weather History Graph

Daily Weather History Graph

Search for Another Location

Airport or City:

Trip Planner

Search our weather history database for the weather conditions in past years. The results will help you decide how hot, cold, wet, or windy it might be!

Date:

Astronomy

Oct. 21, 2011 Rise Set
Actual Time 7:54 AM EDT 6:41 PM EDT
Civil Twilight 7:25 AM EDT 7:10 PM EDT
Nautical Twilight 6:52 AM EDT 7:43 PM EDT
Astronomical Twilight 6:19 AM EDT 8:16 PM EDT
Moon 1:33 AM EDT (10/21) 3:34 PM EDT (10/21)
Length of Visible Light 11h 44m
Length of Day
10h 46m
Waning Crescent, 34% of the Moon is Illuminated
Oct 21
Waning Crescent
Oct 26
New
Nov 2
First Quarter
Nov 10
Full
Nov 18
Last Quarter

Hourly Weather History & Observations

Time (EDT) Temp. Windchill Dew Point Humidity Pressure Visibility Wind Dir Wind Speed Gust Speed Precip Events Conditions
12:15 AM 42.8 °F 38.0 °F 41.0 °F 93% 29.62 in 10.0 mi West 8.1 mph - N/A Rain Light Rain
12:35 AM 42.8 °F 37.0 °F 41.0 °F 93% 29.63 in 10.0 mi West 10.4 mph - N/A   Light Drizzle
1:15 AM 42.8 °F 37.0 °F 41.0 °F 93% 29.66 in 10.0 mi WNW 10.4 mph - N/A   Overcast
1:34 AM 42.8 °F 38.0 °F 39.2 °F 87% 29.67 in 10.0 mi West 8.1 mph - N/A   Overcast
2:34 AM 42.8 °F 38.0 °F 39.2 °F 87% 29.69 in 10.0 mi WNW 8.1 mph - N/A   Overcast
2:55 AM 42.8 °F 38.0 °F 39.2 °F 87% 29.70 in 10.0 mi West 8.1 mph - N/A   Overcast
3:15 AM 42.8 °F 37.0 °F 39.2 °F 87% 29.71 in 7.0 mi WNW 10.4 mph - N/A Rain Rain
3:34 AM 42.8 °F 37.5 °F 39.2 °F 87% 29.72 in 10.0 mi West 9.2 mph - N/A   Overcast
3:55 AM 42.8 °F 37.5 °F 39.2 °F 87% 29.72 in 10.0 mi WNW 9.2 mph - N/A   Overcast
4:15 AM 42.8 °F 37.5 °F 39.2 °F 87% 29.73 in 10.0 mi West 9.2 mph - N/A   Overcast
4:34 AM 42.8 °F 37.0 °F 39.2 °F 87% 29.75 in 10.0 mi West 10.4 mph - N/A   Overcast
4:55 AM 42.8 °F 36.6 °F 37.4 °F 81% 29.75 in 10.0 mi West 11.5 mph 17.3 mph N/A   Overcast
5:15 AM 42.8 °F 37.5 °F 37.4 °F 81% 29.77 in 10.0 mi WNW 9.2 mph - N/A   Overcast
5:34 AM 42.8 °F 38.6 °F 37.4 °F 81% 29.78 in 10.0 mi WNW 6.9 mph - N/A   Overcast
5:55 AM 42.8 °F 38.6 °F 37.4 °F 81% 29.79 in 10.0 mi WNW 6.9 mph - N/A   Overcast
6:14 AM 42.8 °F 38.6 °F 39.2 °F 87% 29.80 in 10.0 mi West 6.9 mph - N/A   Overcast
6:35 AM 42.8 °F 38.6 °F 37.4 °F 81% 29.81 in 10.0 mi WNW 6.9 mph - N/A   Overcast
6:54 AM 42.8 °F 39.3 °F 37.4 °F 81% 29.82 in 10.0 mi West 5.8 mph - N/A   Overcast
7:14 AM 42.8 °F 38.6 °F 39.2 °F 87% 29.83 in 10.0 mi West 6.9 mph - N/A   Overcast
7:35 AM 42.8 °F 38.0 °F 39.2 °F 87% 29.84 in 10.0 mi West 8.1 mph - N/A   Overcast
8:15 AM 42.8 °F 38.6 °F 39.2 °F 87% 29.86 in 10.0 mi West 6.9 mph - N/A   Overcast
8:35 AM 42.8 °F 38.0 °F 41.0 °F 93% 29.87 in 10.0 mi West 8.1 mph - N/A   Overcast
8:54 AM 42.8 °F 38.0 °F 41.0 °F 93% 29.88 in 10.0 mi West 8.1 mph - N/A   Overcast
9:15 AM 42.8 °F 37.0 °F 41.0 °F 93% 29.89 in 10.0 mi WNW 10.4 mph - N/A   Overcast
9:35 AM 42.8 °F 38.6 °F 41.0 °F 93% 29.90 in 1.5 mi NW 6.9 mph - N/A Rain Heavy Rain
9:54 AM 42.8 °F 37.5 °F 41.0 °F 93% 29.91 in 2.5 mi West 9.2 mph - N/A   Drizzle
10:15 AM 42.8 °F 36.6 °F 41.0 °F 93% 29.92 in 5.0 mi West 11.5 mph 17.3 mph N/A Rain Light Rain
10:35 AM 44.6 °F 38.1 °F 41.0 °F 87% 29.92 in 10.0 mi West 13.8 mph 17.3 mph N/A   Overcast
10:54 AM 44.6 °F 38.4 °F 41.0 °F 87% 29.93 in 10.0 mi West 12.7 mph - N/A   Overcast
11:15 AM 44.6 °F 37.8 °F 41.0 °F 87% 29.93 in 10.0 mi West 15.0 mph 19.6 mph N/A   Overcast
11:35 AM 44.6 °F 38.1 °F 39.2 °F 81% 29.94 in 10.0 mi West 13.8 mph - N/A   Overcast
11:54 AM 44.6 °F 38.1 °F 39.2 °F 81% 29.95 in 10.0 mi West 13.8 mph 19.6 mph N/A   Overcast
12:14 PM 44.6 °F 38.4 °F 37.4 °F 76% 29.95 in 10.0 mi West 12.7 mph - N/A   Overcast
12:34 PM 44.6 °F 39.7 °F 37.4 °F 76% 29.95 in 10.0 mi West 9.2 mph - N/A   Overcast
12:55 PM 44.6 °F 38.8 °F 37.4 °F 76% 29.95 in 10.0 mi WNW 11.5 mph 16.1 mph N/A   Overcast
1:15 PM 44.6 °F 39.2 °F 37.4 °F 76% 29.95 in 10.0 mi WNW 10.4 mph - N/A   Overcast
1:34 PM 44.6 °F 39.7 °F 37.4 °F 76% 29.95 in 10.0 mi West 9.2 mph - N/A   Overcast
1:55 PM 44.6 °F 38.8 °F 37.4 °F 76% 29.95 in 10.0 mi West 11.5 mph 17.3 mph N/A   Overcast
2:15 PM 44.6 °F 39.2 °F 35.6 °F 71% 29.96 in 10.0 mi West 10.4 mph - N/A   Overcast
2:35 PM 44.6 °F 38.8 °F 35.6 °F 71% 29.96 in 10.0 mi West 11.5 mph - N/A   Overcast
2:54 PM 44.6 °F 39.2 °F 35.6 °F 71% 29.96 in 10.0 mi West 10.4 mph - N/A   Overcast
3:14 PM 44.6 °F 39.2 °F 35.6 °F 71% 29.97 in 10.0 mi WNW 10.4 mph 16.1 mph N/A   Overcast
3:35 PM 46.4 °F 41.5 °F 35.6 °F 66% 29.97 in 10.0 mi West 10.4 mph - N/A   Overcast
3:54 PM 46.4 °F 41.5 °F 37.4 °F 71% 29.98 in 10.0 mi West 10.4 mph - N/A   Overcast
4:15 PM 46.4 °F 41.1 °F 35.6 °F 66% 29.98 in 10.0 mi West 11.5 mph - N/A   Overcast
4:35 PM 46.4 °F 41.9 °F 35.6 °F 66% 29.99 in 10.0 mi West 9.2 mph - N/A   Overcast
4:54 PM 46.4 °F 41.9 °F 35.6 °F 66% 29.99 in 10.0 mi WSW 9.2 mph - N/A   Overcast
5:15 PM 44.6 °F 40.7 °F 35.6 °F 71% 29.99 in 10.0 mi WSW 6.9 mph - N/A   Overcast
5:35 PM 44.6 °F 41.4 °F 35.6 °F 71% 29.99 in 10.0 mi WSW 5.8 mph - N/A   Overcast
5:54 PM 44.6 °F 40.2 °F 35.6 °F 71% 30.00 in 10.0 mi WSW 8.1 mph - N/A   Overcast
6:35 PM 44.6 °F 41.4 °F 35.6 °F 71% 30.01 in 10.0 mi WSW 5.8 mph - N/A   Overcast
7:15 PM 44.6 °F 42.2 °F 35.6 °F 71% 30.02 in 10.0 mi West 4.6 mph - N/A   Overcast
7:35 PM 44.6 °F 41.4 °F 35.6 °F 71% 30.03 in 10.0 mi West 5.8 mph - N/A   Overcast
7:54 PM 44.6 °F 42.2 °F 37.4 °F 76% 30.03 in 10.0 mi West 4.6 mph - N/A   Overcast
8:14 PM 44.6 °F 42.2 °F 35.6 °F 71% 30.04 in 10.0 mi West 4.6 mph - N/A   Overcast
8:34 PM 44.6 °F 41.4 °F 35.6 °F 71% 30.04 in 10.0 mi West 5.8 mph - N/A   Overcast
8:55 PM 44.6 °F 40.7 °F 35.6 °F 71% 30.04 in 10.0 mi West 6.9 mph - N/A   Overcast
9:14 PM 44.6 °F 42.2 °F 35.6 °F 71% 30.04 in 10.0 mi WNW 4.6 mph - N/A   Overcast
9:34 PM 44.6 °F 42.2 °F 35.6 °F 71% 30.05 in 10.0 mi WNW 4.6 mph - N/A   Overcast
9:55 PM 44.6 °F - 35.6 °F 71% 30.05 in 10.0 mi Calm Calm - N/A   Overcast
10:14 PM 44.6 °F - 35.6 °F 71% 30.05 in 10.0 mi Calm Calm - N/A   Overcast
10:55 PM 42.8 °F 41.1 °F 37.4 °F 81% 30.05 in 10.0 mi West 3.5 mph - N/A   Overcast
11:14 PM 42.8 °F 41.1 °F 37.4 °F 81% 30.05 in 10.0 mi West 3.5 mph - N/A   Overcast
11:54 PM 42.8 °F 41.1 °F 37.4 °F 81% 30.05 in 10.0 mi West 3.5 mph - N/A   Overcast